EST,Max TemperatureF,Mean TemperatureF,Min TemperatureF,Max Dew PointF,MeanDew PointF,Min DewpointF,Max Humidity, Mean Humidity, Min Humidity, Max Sea Level PressureIn, Mean Sea Level PressureIn, Min Sea Level PressureIn, Max VisibilityMiles, Mean VisibilityMiles, Min VisibilityMiles, Max Wind SpeedMPH, Mean Wind SpeedMPH, Max Gust SpeedMPH,PrecipitationIn, CloudCover, Events, WindDirDegrees
2013-12-1,40,36,32,30,27,23,82,73,64,30.18,30.05,29.96,10,10,10,15,7,20,T,8,Rain,185
2013-12-2,37,34,31,34,31,28,92,81,70,29.94,29.91,29.86,10,6,2,8,4,10,0.00,7,,239
2013-12-3,41,33,25,28,26,23,92,73,54,30.00,29.97,29.93,10,9,5,10,4,14,0.00,4,,49
2013-12-4,54,44,34,41,36,28,92,76,59,30.01,29.95,29.84,10,7,2,12,5,15,0.03,7,Rain,81
2013-12-5,61,50,38,52,42,30,89,76,62,30.04,29.84,29.73,10,10,7,26,18,40,T,8,Rain,226
2013-12-6,38,34,29,32,25,20,89,75,61,30.27,30.15,30.04,10,9,2,18,8,23,0.09,8,Rain-Snow,274
2013-12-7,29,25,20,21,15,10,75,63,50,30.59,30.45,30.28,10,10,9,20,10,25,T,5,Snow,275
2013-12-8,28,24,19,22,15,10,77,64,50,30.59,30.44,30.16,10,9,2,18,7,21,0.01,7,Snow,103
2013-12-9,38,33,27,34,28,19,92,78,64,30.12,29.93,29.85,10,8,2,35,19,46,0.07,8,Rain-Snow,225
2013-12-10,32,26,20,22,15,5,88,67,45,30.10,29.97,29.89,10,7,0,29,16,43,0.03,6,Snow,273
2013-12-11,26,21,15,16,10,5,74,64,54,30.32,30.21,30.12,10,9,2,28,16,37,T,6,Snow,277
2013-12-12,21,16,11,18,9,1,84,72,59,30.35,30.21,30.07,10,6,0,25,15,35,0.18,6,Fog-Snow,260
2013-12-13,26,20,13,18,12,7,84,73,61,30.41,30.20,30.04,10,5,0,30,13,41,0.02,8,Fog-Snow,346
2013-12-14,17,15,12,13,10,5,88,82,76,30.43,30.14,29.70,9,2,0,22,13,26,0.41,8,Snow,59
2013-12-15,25,21,16,20,16,6,92,74,56,29.91,29.72,29.61,10,4,0,28,12,39,0.19,7,Fog-Snow,278
2013-12-16,20,13,6,9,6,2,80,68,56,30.19,30.09,29.92,10,10,9,23,10,31,T,4,,258
2013-12-17,28,17,5,25,17,1,96,85,74,30.11,29.94,29.88,10,5,0,21,9,28,0.20,8,Fog-Snow,195
2013-12-18,31,28,24,22,20,18,92,78,63,30.07,30.01,29.90,10,9,4,23,14,30,T,8,Snow,255
2013-12-19,40,33,26,33,26,16,89,73,56,30.05,29.97,29.90,10,9,3,24,11,31,T,7,Rain,212
2013-12-20,43,39,35,43,39,33,100,93,86,29.96,29.83,29.76,10,3,0,14,7,20,0.69,8,Fog-Rain,206
2013-12-21,52,42,32,50,40,30,100,95,89,29.87,29.79,29.72,10,4,0,22,11,28,1.12,8,Fog-Rain,354
2013-12-22,42,37,31,40,33,28,100,93,85,29.97,29.70,29.58,10,6,1,30,15,39,1.38,8,Rain,60
2013-12-23,39,32,25,36,28,16,92,80,68,30.28,30.10,29.97,10,10,10,24,12,31,T,7,Rain-Snow,252
2013-12-24,26,18,10,21,14,3,88,76,63,30.52,30.31,30.18,10,5,0,15,7,22,0.09,7,Fog-Snow,320
2013-12-25,26,14,2,16,7,0,88,73,57,30.55,30.42,30.20,10,10,10,14,4,17,0.00,6,,150
2013-12-26,30,26,21,27,22,11,92,77,62,30.30,30.12,30.03,10,6,0,23,11,29,0.24,7,Fog-Snow,239
2013-12-27,36,29,21,29,23,13,92,79,66,30.29,30.23,30.08,10,8,2,18,11,25,0.01,7,Snow,228
2013-12-28,43,39,34,33,30,26,85,72,59,30.11,30.04,29.94,10,10,10,28,16,38,0.00,4,,228
2013-12-29,45,36,27,37,29,20,85,67,49,29.92,29.74,29.64,10,10,8,22,12,29,T,8,,236
2013-12-30,27,22,17,18,11,6,84,73,61,30.23,30.12,29.83,10,7,0,22,9,31,0.01,8,Fog-Snow,319
2013-12-31,22,18,13,19,11,2,91,72,53,30.26,30.07,29.93,10,5,0,29,14,37,0.10,7,Fog-Snow,232